Home   Weather   Fort Smith   Past weeks

Flag for Canada Past Weather in Fort Smith, Northwest Territories, Canada — Yesterday and Last 2 Weeks

Now
3 °F

Passing clouds.


Feels Like: -6 °F
Forecast: 11 / 22 °F
Wind: 5 mph from North

Location: Fort Smith

Current Time: Jan 18, 2017 at 5:12:47 am

Latest Report: Jan 18, 2017 at 4:00 am


Visibility: 15 mi

Pressure: 29.37 "Hg

Humidity: 85%

Dew Point: 0 °F

Location of Fort SmithLocation

Past Weather in Fort Smith — Graph

°F

Fort Smith Temperature Yesterday

Maximum temperature yesterday: 28 °F (at 12:00 am)
Minimum temperature yesterday: 10 °F (at 11:00 pm)
Average temperature yesterday: 23 °F

High & Low Weather Summary for the Past Weeks

 TemperatureHumidityPressure
High41 °F (Jan 11, 7:00 am)100% (Jan 11, 7:00 am)30.69 "Hg (Jan 11, 7:00 am)
Low-35 °F (Jan 12, 1:00 am)66% (Jan 12, 1:00 am)28.98 "Hg (Jan 17, 5:00 am)
Average-3 °F81%29.99 "Hg
* Reported Jan 3 4:00 am — Jan 18 4:00 am, Fort Smith, Weather by CustomWeather, © 2017

Note: Actual official high and low records may vary slightly from our data, if they occured in-between our weather recording intervals... More about our weather records

Advertising

Fort Smith Weather History for the Previous 24 Hours

Scroll right to see more
 ConditionsComfort  
Time TempWeatherWind HumidityBarometerVisibility
4:00 am
Wed, Jan 18
3 °FPassing clouds.5 mph85%29.37 "Hg15 mi
3:00 am3 °FPassing clouds.6 mph85%29.36 "Hg15 mi
2:00 am5 °FPassing clouds.8 mph85%29.36 "Hg15 mi
1:00 am7 °FPassing clouds.7 mph85%29.37 "Hg15 mi
12:00 am7 °FPassing clouds.6 mph92%29.36 "Hg15 mi
11:00 pm
Tue, Jan 17
10 °FPassing clouds.7 mph85%29.32 "Hg15 mi
10:00 pm14 °FPassing clouds.8 mph85%29.31 "Hg15 mi
9:09 pm18 °FIce fog.6 mph93%29.28 "Hg4 mi
9:00 pm18 °FIce fog.6 mph93%29.28 "Hg3 mi
8:50 pm18 °FIce fog.7 mph93%29.28 "Hg2 mi
8:00 pm18 °FPassing clouds.6 mph93%29.26 "Hg15 mi
7:08 pm23 °FPassing clouds.7 mph93%29.23 "Hg15 mi
6:00 pm19 °FIce fog.No wind93%29.23 "Hg1 mi
5:00 pm23 °FIce fog.No wind100%29.21 "Hg1 mi
4:15 pm23 °FIce fog.2 mph100%29.19 "Hg0 mi
4:00 pm27 °FLight fog.3 mph93%29.18 "Hg15 mi
3:00 pm28 °FLight fog.2 mph93%29.15 "Hg15 mi
2:00 pm27 °FPartly sunny.3 mph93%29.14 "Hg15 mi
1:00 pm28 °FScattered clouds.3 mph86%29.12 "Hg15 mi
12:00 pm28 °FPassing clouds.3 mph86%29.11 "Hg15 mi
11:00 am25 °FPassing clouds.2 mph86%29.11 "Hg15 mi
10:00 am23 °FPassing clouds.8 mph93%29.09 "Hg15 mi
9:00 am23 °FClear.2 mph93%29.05 "Hg15 mi
8:00 am23 °FPassing clouds.5 mph93%29.04 "Hg15 mi
7:00 am27 °FPassing clouds.2 mph93%29.02 "Hg15 mi
6:00 am21 °FPassing clouds.3 mph93%29.00 "Hg15 mi
5:00 am28 °FPartly cloudy.7 mph93%28.98 "Hg15 mi
Weather by CustomWeather, © 2017

See weather overviewHow to use our weather pages